Weather History for Seminole, TX

Change the Weather History Date:

Thursday, July 18, 2013

  Actual Average (KHOB) Record (KHOB)
Temperature  
Mean Temperature 72 °F -  
Max Temperature 78 °F 93 °F 102 °F (2001)
Min Temperature 65 °F 66 °F 59 °F (2007)
Cooling Degree Days 6    
Growing Degree Days 22 (Base 50)    
Moisture  
Dew Point 65 °F    
Average Humidity 86    
Maximum Humidity 97    
Minimum Humidity 61    
Precipitation  
Precipitation 0.48 in - - ()
Sea Level Pressure  
Sea Level Pressure 30.23 in    
Wind  
Wind Speed 7 mph (SE)    
Max Wind Speed 16 mph    
Max Gust Speed 21 mph    
Visibility 9 miles    
Events Rain    
Averages and records for this station are not official NWS values.
T = Trace of Precipitation, MM = Missing Value Source: NWS Daily Summary

Daily Weather History Graph

Daily Weather History Graph

Search for Another Location

Airport:

Trip Planner

Search our weather history database for the weather conditions in past years. The results will help you decide how hot, cold, wet, or windy it might be!

Date:

Astronomy

Jul. 18, 2013 Rise Set
Actual Time 6:55 AM CDT 8:57 PM CDT
Civil Twilight 6:27 AM CDT 9:25 PM CDT
Nautical Twilight 5:54 AM CDT 9:59 PM CDT
Astronomical Twilight 5:18 AM CDT 10:35 PM CDT
Moon 4:58 PM CDT (7/18) 2:44 AM CDT (7/18)
Length of Visible Light 14h 57m
Length of Day
14h 02m
Waxing Gibbous, 77% of the Moon is Illuminated
Jul 18
Waxing Gibbous
Jul 22
Full
Jul 29
Last Quarter
Aug 6
New
Aug 14
First Quarter

Hourly Weather History & Observations

Time (CDT) Temp. Dew Point Humidity Pressure Visibility Wind Dir Wind Speed Gust Speed Precip Events Conditions
12:15 AM 68.0 °F 65.5 °F 92% 30.28 in 10.0 mi East 8.1 mph - N/A   Mostly Cloudy
12:35 AM 68.0 °F 65.7 °F 92% 30.28 in 10.0 mi East 6.9 mph - N/A   Overcast
12:55 AM 67.8 °F 65.8 °F 93% 30.28 in 10.0 mi ESE 8.1 mph - N/A   Overcast
1:15 AM 67.6 °F 66.2 °F 95% 30.28 in 10.0 mi East 8.1 mph - N/A   Overcast
1:35 AM 67.6 °F 66.2 °F 95% 30.27 in 10.0 mi East 4.6 mph - N/A   Overcast
1:55 AM 68.0 °F 66.2 °F 94% 30.26 in 10.0 mi ESE 5.8 mph - N/A   Overcast
2:15 AM 68.0 °F 66.2 °F 94% 30.26 in 10.0 mi ESE 5.8 mph - N/A   Overcast
2:35 AM 67.8 °F 66.0 °F 94% 30.25 in 10.0 mi East 4.6 mph - N/A   Overcast
2:55 AM 67.5 °F 65.8 °F 95% 30.25 in 7.0 mi East 3.5 mph - N/A   Mostly Cloudy
3:15 AM 67.5 °F 66.2 °F 96% 30.25 in 7.0 mi East 4.6 mph - N/A   Mostly Cloudy
3:35 AM 67.6 °F 66.2 °F 95% 30.25 in 7.0 mi East 8.1 mph - N/A   Overcast
3:55 AM 67.5 °F 66.2 °F 96% 30.25 in 10.0 mi ESE 6.9 mph - N/A   Overcast
4:15 AM 67.5 °F 65.8 °F 95% 30.25 in 7.0 mi SE 9.2 mph - N/A Rain Heavy Rain
4:35 AM 67.1 °F 65.7 °F 95% 30.25 in 7.0 mi SE 6.9 mph - 0.03 in   Light Drizzle
4:55 AM 67.1 °F 65.7 °F 95% 30.24 in 10.0 mi SE 10.4 mph - 0.03 in   Overcast
5:15 AM 67.1 °F 65.5 °F 95% 30.24 in 5.0 mi SE 8.1 mph - N/A   Overcast
5:35 AM 67.1 °F 65.7 °F 95% 30.25 in 4.0 mi SSE 5.8 mph - 0.03 in Rain Heavy Rain
5:55 AM 66.2 °F 64.9 °F 96% 30.25 in 3.0 mi SE 6.9 mph - 0.18 in Rain Heavy Rain
6:15 AM 66.2 °F 65.1 °F 96% 30.25 in 5.0 mi SE 10.4 mph - 0.02 in   Heavy Drizzle
6:35 AM 66.2 °F 65.3 °F 97% 30.25 in 5.0 mi SE 6.9 mph - 0.06 in Rain Light Rain
6:55 AM 65.8 °F 64.8 °F 96% 30.25 in 7.0 mi SE 6.9 mph - 0.07 in Rain Light Rain
7:15 AM 66.2 °F 65.3 °F 97% 30.26 in 5.0 mi SE 5.8 mph - 0.02 in Rain Light Rain
7:35 AM 66.2 °F 65.3 °F 97% 30.26 in 4.0 mi SE 4.6 mph - 0.06 in Rain Light Rain
7:55 AM 66.4 °F 65.5 °F 97% 30.26 in 7.0 mi SE 4.6 mph - 0.07 in Rain Light Rain
8:15 AM 66.6 °F 65.7 °F 97% 30.26 in 5.0 mi SE 6.9 mph - N/A   Mostly Cloudy
8:35 AM 67.1 °F 66.2 °F 97% 30.27 in 10.0 mi SE 6.9 mph - N/A   Overcast
8:55 AM 67.3 °F 66.0 °F 96% 30.27 in 10.0 mi SE 8.1 mph - N/A   Overcast
9:15 AM 68.0 °F 65.8 °F 93% 30.27 in 10.0 mi SE 6.9 mph - N/A   Overcast
9:35 AM 68.4 °F 65.5 °F 90% 30.28 in 10.0 mi SE 8.1 mph - N/A   Overcast
9:55 AM 68.9 °F 65.5 °F 89% 30.27 in 10.0 mi SE 11.5 mph - N/A   Mostly Cloudy
10:15 AM 69.3 °F 64.8 °F 86% 30.27 in 10.0 mi SSE 10.4 mph 16.1 mph N/A   Mostly Cloudy
10:35 AM 70.0 °F 64.6 °F 83% 30.28 in 10.0 mi SSE 10.4 mph - N/A   Scattered Clouds
10:55 AM 69.4 °F 64.4 °F 84% 30.28 in 10.0 mi SE 10.4 mph - N/A   Mostly Cloudy
11:15 AM 69.1 °F 65.7 °F 89% 30.28 in 4.0 mi SE 9.2 mph - N/A Rain Rain
11:35 AM 68.5 °F 66.2 °F 92% 30.27 in 10.0 mi ESE 5.8 mph - 0.01 in   Mostly Cloudy
11:55 AM 70.7 °F 65.5 °F 83% 30.27 in 10.0 mi SE 10.4 mph - 0.01 in   Mostly Cloudy
12:15 PM 67.6 °F 65.1 °F 92% 30.27 in 4.0 mi South 9.2 mph - 0.01 in Rain Rain
12:35 PM 68.9 °F 67.1 °F 94% 30.27 in 7.0 mi SSE 4.6 mph - 0.03 in   Light Drizzle
12:55 PM 69.8 °F 66.6 °F 89% 30.27 in 7.0 mi SSE 6.9 mph - 0.03 in Rain Light Rain
1:15 PM 68.5 °F 66.2 °F 92% 30.26 in 4.0 mi SSE 3.5 mph - 0.08 in Rain Light Rain
1:35 PM 70.9 °F 67.6 °F 89% 30.26 in 10.0 mi SE 13.8 mph - 0.09 in   Mostly Cloudy
1:55 PM 70.7 °F 66.4 °F 86% 30.25 in 10.0 mi SSE 16.1 mph - 0.09 in   Scattered Clouds
2:15 PM 73.9 °F 67.6 °F 81% 30.25 in 10.0 mi South 11.5 mph - N/A   Scattered Clouds
2:35 PM 73.8 °F 64.4 °F 72% 30.24 in 10.0 mi South 10.4 mph - N/A   Scattered Clouds
2:55 PM 74.8 °F 65.5 °F 73% 30.23 in 10.0 mi SSE 6.9 mph - N/A   Scattered Clouds
3:15 PM 77.5 °F 66.4 °F 68% 30.22 in 10.0 mi SE 9.2 mph - N/A   Scattered Clouds
3:35 PM 76.5 °F 65.7 °F 69% 30.21 in 10.0 mi South 16.1 mph 20.7 mph N/A   Scattered Clouds
3:55 PM 70.2 °F 65.8 °F 86% 30.21 in 7.0 mi SSE 9.2 mph - N/A Rain Light Rain
5:15 PM 76.1 °F 63.5 °F 65% 30.19 in 10.0 mi SE 8.1 mph - N/A   Clear
5:35 PM 77.4 °F 64.0 °F 63% 30.18 in 10.0 mi SSE 10.4 mph - N/A   Clear
5:55 PM 76.1 °F 64.9 °F 68% 30.17 in 10.0 mi South 11.5 mph - N/A   Clear
6:15 PM 75.2 °F 63.7 °F 67% 30.17 in 10.0 mi SSE 10.4 mph - N/A   Clear
6:35 PM 75.4 °F 63.1 °F 66% 30.16 in 10.0 mi South 6.9 mph - N/A   Scattered Clouds
6:55 PM 76.3 °F 63.7 °F 65% 30.16 in 10.0 mi SSE 5.8 mph - N/A   Scattered Clouds
7:15 PM 78.1 °F 63.7 °F 61% 30.15 in 10.0 mi SSE 11.5 mph - N/A   Clear
7:35 PM 77.0 °F 63.9 °F 64% 30.16 in 10.0 mi South 9.2 mph - N/A   Clear
7:55 PM 75.9 °F 64.8 °F 68% 30.16 in 10.0 mi SSW 8.1 mph - N/A   Clear
8:15 PM 73.9 °F 65.1 °F 74% 30.16 in 10.0 mi South 5.8 mph - N/A   Clear
8:35 PM 73.0 °F 65.5 °F 77% 30.16 in 10.0 mi SSW 4.6 mph - N/A   Clear
8:55 PM 72.5 °F 65.5 °F 79% 30.15 in 10.0 mi SSW 3.5 mph - N/A   Clear
9:15 PM 71.6 °F 65.5 °F 81% 30.15 in 10.0 mi South 3.5 mph - N/A   Clear
9:35 PM 71.2 °F 66.0 °F 84% 30.15 in 10.0 mi SSE 3.5 mph - N/A   Scattered Clouds
9:55 PM 71.2 °F 65.8 °F 83% 30.16 in 10.0 mi SSE 6.9 mph - N/A   Scattered Clouds
10:15 PM 70.7 °F 66.2 °F 86% 30.16 in 10.0 mi SE 3.5 mph - N/A   Clear
10:35 PM 70.5 °F 64.9 °F 82% 30.16 in 10.0 mi SSE 5.8 mph - N/A   Clear
10:55 PM 69.8 °F 65.1 °F 85% 30.17 in 10.0 mi SSE 4.6 mph - N/A   Clear
11:15 PM 69.3 °F 65.3 °F 87% 30.18 in 10.0 mi SSE 3.5 mph - N/A   Clear
11:35 PM 68.9 °F 65.7 °F 89% 30.18 in 10.0 mi SSE 3.5 mph - N/A   Clear
11:55 PM 68.2 °F 65.7 °F 92% 30.19 in 10.0 mi SE 3.5 mph - N/A   Clear